1530032400.79,29561,17.0,74004.3,3.15,-1.25,-1.99,0,*74
1530032402.01,29562,17.0,74002.3,3.13,-1.21,-2.11,0,*76
1530032403.2,29563,17.06,74004.3,3.13,-1.21,-2.35,0,*71
1530032404.42,29564,17.0,74000.8,3.13,-1.01,-2.35,0,*74
1530032405.63,29565,17.06,74008.3,3.15,-0.77,-2.31,0,*47
1530032406.87,29566,17.06,74004.5,3.13,-1.09,-2.63,0,*7D
1530032408.13,29567,17.06,74004.5,3.15,-1.13,-2.71,0,*72
1530032409.37,29568,17.06,74006.3,3.15,-1.21,-2.71,0,*7C
1530032410.64,29569,17.06,74006.8,3.15,-1.01,-2.51,0,*7D
1530032411.84,29570,17.06,74004.0,3.19,-0.69,-2.27,0,*47
1530032413.08,29571,17.06,74004.3,3.17,-0.93,-2.55,0,*48
1530032414.35,29572,17.06,74002.8,3.19,-1.01,-2.51,0,*7B
1530032415.61,29573,17.06,74002.8,3.19,-1.01,-2.51,0,*7A
1530032416.86,29574,17.06,74006.8,3.19,-1.17,-2.67,0,*7F
1530032418.07,29575,17.06,74006.0,3.19,-1.25,-2.79,0,*70
1530032419.28,29576,17.06,74004.5,3.19,-1.25,-2.79,0,*73
1530032420.48,29577,17.06,74000.8,3.25,-1.35,-3.03,0,*70
1530032421.7,29578,17.06,74006.0,3.21,-1.39,-3.07,0,*73
1530032422.92,29579,17.0,74002.0,3.21,-1.39,-2.99,0,*74
1530032424.15,29580,17.06,74004.3,3.21,-1.39,-2.99,0,*72
1530032425.33,29581,17.06,74006.0,3.25,-1.51,-2.95,0,*75
1530032426.51,29582,17.06,74004.5,3.25,-1.59,-2.95,0,*7E
1530032427.72,29583,17.06,74004.3,3.25,-1.87,-3.11,0,*71
1530032428.93,29584,17.06,74002.3,3.25,-1.87,-3.03,0,*75
1530032430.12,29585,17.06,74006.0,3.25,-2.19,-3.27,0,*76
1530032431.3,29586,17.06,74006.0,3.25,-2.35,-3.27,0,*7B
1530032432.49,29587,17.06,74006.5,3.25,-2.23,-2.95,0,*75
1530032433.69,29588,17.06,74002.0,3.27,-2.39,-3.23,0,*7F
1530032434.93,29589,17.06,74002.5,3.27,-2.47,-3.27,0,*73
1530032436.16,29590,17.06,74004.3,3.27,-2.47,-3.23,0,*7F
1530032437.37,29591,17.06,74000.3,3.27,-2.27,-2.95,0,*74
1530032438.55,29592,17.06,74004.5,3.25,-2.23,-2.83,0,*76
1530032439.76,29593,17.06,74004.8,3.27,-2.35,-2.95,0,*75
1530032441.0,29594,17.06,74004.3,3.27,-2.19,-2.75,0,*72
1530032442.24,29595,17.06,74004.0,3.27,-2.19,-2.71,0,*77
1530032443.48,29596,17.06,74004.3,3.27,-2.11,-2.83,0,*71
1530032444.66,29597,17.06,74004.8,3.29,-2.19,-2.91,0,*75
1530032445.87,29598,17.06,74000.8,3.27,-2.23,-2.87,0,*7A
1530032447.13,29599,17.06,74004.0,3.27,-1.83,-2.59,0,*71
1530032448.4,29600,17.06,74004.8,3.31,-1.83,-2.47,0,*7A
1530032449.64,29601,17.06,74006.5,3.29,-1.91,-2.55,0,*72
1530032450.88,29602,17.06,74004.5,3.29,-1.83,-2.55,0,*72
1530032452.15,29603,17.06,74004.3,3.31,-1.83,-2.55,0,*7A
1530032453.42,29604,17.06,74004.8,3.33,-1.91,-2.75,0,*7E
1530032454.66,29605,17.06,74006.0,3.31,-2.03,-2.79,0,*79
1530032455.87,29606,17.06,74004.0,3.33,-2.15,-3.07,0,*77
1530032457.08,29607,17.06,74004.0,3.31,-2.15,-3.07,0,*74
1530032458.3,29608,17.06,74004.8,3.33,-2.15,-3.27,0,*7B
1530032459.52,29609,17.06,74006.3,3.33,-2.31,-3.31,0,*7B
1530032460.73,29610,17.06,74002.3,3.33,-2.19,-3.31,0,*79
1530032461.98,29611,17.06,74006.8,3.33,-2.11,-3.27,0,*77
1530032463.23,29612,17.06,74006.8,3.33,-1.99,-3.31,0,*70
1530032464.48,29613,17.06,74002.8,3.33,-1.87,-3.27,0,*79
1530032465.67,29614,17.06,74002.5,3.35,-1.71,-3.15,0,*70
1530032466.89,29615,17.06,74004.5,3.35,-1.87,-3.39,0,*76
1530032468.12,29616,17.06,74004.0,3.35,-1.95,-3.51,0,*78
1530032469.34,29617,17.06,74004.3,3.35,-1.87,-3.39,0,*74
1530032470.58,29618,17.06,74004.5,3.35,-1.95,-3.59,0,*7E
1530032471.79,29619,17.06,74004.5,3.37,-1.75,-3.27,0,*7A
1530032472.98,29620,17.06,74006.8,3.35,-2.27,-3.79,0,*7D
1530032474.18,29621,17.06,74002.5,3.35,-2.99,-4.37,0,*74
1530032475.43,29622,17.06,74006.0,3.35,-3.47,-4.89,0,*70
1530032476.69,29623,17.06,74004.3,3.33,-3.91,-5.11,0,*7C
1530032477.93,29624,17.06,74002.0,3.31,-4.33,-5.65,0,*75
1530032479.14,29625,17.06,74004.8,3.31,-4.33,-5.51,0,*73
1530032480.42,29626,17.06,74004.0,3.31,-4.01,-5.23,0,*74
1530032481.66,29627,17.06,74004.5,3.29,-3.67,-4.77,0,*7B
1530032482.88,29628,17.06,74006.0,3.27,-3.35,-4.41,0,*78
1530032484.07,29629,17.06,74006.8,3.29,-3.31,-4.33,0,*76
1530032485.26,29630,17.06,74006.3,3.29,-3.23,-4.13,0,*7F
1530032486.45,29631,17.06,74004.5,3.29,-3.23,-4.21,0,*7F
1530032487.65,29632,17.06,74006.0,3.29,-3.31,-4.25,0,*7B
1530032488.87,29633,17.06,74006.3,3.29,-3.43,-4.33,0,*78
1530032490.09,29634,17.06,74004.0,3.29,-3.71,-4.65,0,*7D
1530032491.32,29635,17.06,74006.5,3.27,-3.63,-4.49,0,*7F
1530032492.54,29636,17.06,74002.0,3.29,-3.87,-4.73,0,*71
1530032493.76,29637,17.06,74004.0,3.29,-4.09,-4.85,0,*78
1530032495.01,29638,17.06,74006.5,3.27,-4.25,-5.03,0,*78
1530032496.22,29639,17.06,74002.3,3.29,-4.45,-5.27,0,*77
1530032497.42,29640,17.06,74006.5,3.29,-4.57,-5.35,0,*79
1530032498.66,29641,17.06,74004.8,3.27,-4.53,-5.27,0,*71
1530032499.84,29642,17.06,74006.5,3.25,-4.61,-5.39,0,*7E
1530032501.05,29643,17.06,74000.8,3.21,-4.45,-5.31,0,*75
1530032502.24,29644,17.06,74004.8,3.21,-4.65,-5.47,0,*71
1530032503.47,29645,17.06,74004.8,3.21,-4.93,-5.73,0,*7E
1530032504.7,29646,17.06,74004.0,3.21,-4.85,-5.61,0,*79
1530032505.94,29647,17.06,74004.3,3.21,-4.81,-5.61,0,*7C
1530032507.15,29648,17.06,74006.0,3.21,-4.69,-5.35,0,*74
1530032508.41,29649,17.06,74000.8,3.19,-4.69,-5.23,0,*79
1530032509.61,29650,17.06,74002.5,3.17,-4.85,-5.39,0,*76
1530032510.88,29651,17.06,74002.8,3.19,-4.73,-5.23,0,*7B
1530032512.08,29652,17.06,74002.5,3.17,-4.85,-5.39,0,*74
1530032513.29,29653,17.06,74004.8,3.17,-4.99,-5.65,0,*71
1530032514.5,29654,17.06,74004.8,3.17,-4.99,-5.69,0,*7A
1530032515.71,29655,17.06,74004.0,3.17,-4.77,-5.55,0,*74
1530032516.94,29656,17.06,74000.0,3.17,-4.33,-5.03,0,*74
1530032518.15,29657,17.06,74000.5,3.15,-4.65,-5.51,0,*73
1530032519.35,29658,17.06,74004.8,3.15,-4.53,-5.39,0,*77
1530032520.59,29659,17.06,74004.8,3.15,-4.29,-5.15,0,*75
1530032521.83,29660,17.06,74004.5,3.15,-4.49,-5.19,0,*75
1530032523.05,29661,17.06,74004.3,3.15,-4.73,-5.43,0,*72
1530032524.27,29662,17.06,74000.8,3.13,-4.77,-5.55,0,*74
1530032525.53,29663,17.06,74004.0,3.15,-4.81,-5.61,0,*7D
1530032526.76,29664,17.06,74004.5,3.17,-4.77,-5.65,0,*75
1530032528.02,29665,17.06,74006.8,3.15,-5.07,-5.85,0,*7E
1530032529.26,29666,17.06,74004.0,3.13,-4.77,-5.61,0,*77
1530032530.5,29667,17.06,74000.0,3.13,-4.89,-5.69,0,*7F
1530032531.76,29668,17.06,73998.8,3.15,-5.03,-5.85,0,*77
1530032532.98,29669,17.06,74004.0,3.13,-5.31,-6.09,0,*76
1530032534.19,29670,17.06,74006.0,3.15,-5.51,-6.43,0,*70
1530032535.43,29671,17.06,74006.0,3.15,-5.69,-6.59,0,*71
1530032536.69,29672,17.06,74004.0,3.11,-5.61,-6.63,0,*77
1530032537.92,29673,17.06,74004.0,3.11,-5.35,-6.23,0,*73
1530032539.15,29674,17.06,74004.5,3.11,-5.19,-5.97,0,*76
1530032540.35,29675,17.06,74004.5,3.09,-5.55,-6.47,0,*78
1530032541.55,29676,17.13,74006.3,3.09,-5.11,-5.97,0,*75
1530032542.76,29677,17.06,74006.5,3.09,-5.23,-5.97,0,*75
1530032543.99,29678,17.06,74000.8,3.09,-4.85,-5.77,0,*79
1530032545.17,29679,17.06,74002.8,3.09,-5.35,-6.01,0,*70
1530032546.41,29680,17.06,74004.0,3.09,-5.19,-5.85,0,*77
1530032547.65,29681,17.06,74006.5,3.07,-5.35,-5.93,0,*71
1530032548.89,29682,17.06,74002.3,3.07,-5.39,-5.93,0,*7E
1530032550.16,29683,17.06,74006.0,3.07,-5.11,-5.81,0,*76
1530032551.37,29684,17.06,74000.5,3.07,-5.39,-6.05,0,*74
1530032552.64,29685,17.06,74002.0,3.07,-5.03,-5.69,0,*75
1530032553.87,29686,17.06,74006.8,3.09,-5.11,-5.89,0,*75
1530032555.11,29687,17.06,74006.0,3.07,-4.73,-5.39,0,*74
1530032556.31,29688,17.06,74000.8,3.09,-4.85,-5.43,0,*71
1530032557.51,29689,17.13,74004.8,3.09,-4.93,-5.47,0,*73
1530032558.72,29690,17.06,74002.0,3.09,-4.81,-5.47,0,*78
1530032559.93,29691,17.06,74000.8,3.09,-5.07,-5.97,0,*7B
1530032561.14,29692,17.06,74002.3,3.09,-5.31,-6.13,0,*72
1530032562.36,29693,17.06,74004.5,3.05,-5.15,-6.05,0,*7E
1530032563.59,29694,17.06,74006.3,3.07,-4.89,-6.05,0,*7F
1530032564.85,29695,17.06,74006.5,3.07,-4.69,-5.81,0,*7F
1530032566.05,29696,17.06,74006.8,3.09,-4.85,-5.97,0,*77
1530032567.25,29697,17.13,74004.8,3.09,-4.93,-6.09,0,*75
1530032568.47,29698,17.06,74004.8,3.07,-5.51,-6.51,0,*76
1530032569.69,29699,17.06,74002.8,3.05,-5.61,-6.51,0,*76
1530032570.93,29700,17.06,74002.3,3.07,-5.77,-6.69,0,*79
1530032572.12,29701,17.06,74002.3,3.05,-5.47,-6.59,0,*7A
1530032573.34,29702,17.06,74004.5,3.05,-5.27,-6.59,0,*7F
1530032574.56,29703,17.06,74002.3,3.05,-5.15,-6.59,0,*7F
1530032575.74,29704,17.06,74004.3,3.05,-4.99,-6.69,0,*7E
1530032576.96,29705,17.06,74002.8,3.05,-5.15,-6.85,0,*78
1530032578.18,29706,17.06,74004.0,3.05,-5.03,-6.73,0,*75
1530032579.4,29707,17.13,74004.5,3.05,-5.15,-6.85,0,*7A
1530032580.64,29708,17.06,74004.3,3.05,-5.27,-6.97,0,*77
1530032581.84,29709,17.06,74006.3,3.05,-5.47,-7.11,0,*7F
1530032583.05,29710,17.06,74004.5,3.05,-5.39,-7.05,0,*7B
1530032584.29,29711,17.06,74006.8,3.05,-5.27,-6.93,0,*7B
1530032585.53,29712,17.06,74004.3,3.05,-5.27,-6.93,0,*78
1530032586.75,29713,17.13,74006.8,3.05,-5.47,-6.97,0,*7B
1530032587.97,29714,17.13,74004.3,3.01,-5.85,-7.49,0,*74
1530032589.19,29715,17.13,74004.8,3.01,-6.13,-7.61,0,*73
1530032590.43,29716,17.06,74006.5,3.01,-5.89,-7.31,0,*75
1530032591.62,29717,17.06,74002.3,3.01,-6.01,-7.49,0,*78
1530032592.88,29718,17.06,74004.5,2.97,-5.89,-7.39,0,*7D
1530032594.13,29719,17.06,74002.8,2.97,-6.13,-7.61,0,*71
1530032595.38,29720,17.06,74004.3,2.97,-6.13,-7.57,0,*7E
1530032596.62,29721,17.06,74000.8,2.97,-6.01,-7.61,0,*79
1530032597.87,29722,17.13,74004.0,2.97,-6.01,-7.43,0,*7A
1530032599.09,29723,17.13,74004.5,2.97,-5.97,-7.49,0,*7D
1530032600.33,29724,17.13,74004.0,2.97,-6.13,-7.69,0,*77
1530032601.52,29725,17.13,74004.8,2.95,-6.43,-7.87,0,*71
1530032602.74,29726,17.06,74002.8,2.95,-6.13,-7.61,0,*7F
1530032603.95,29727,17.13,74004.5,2.95,-6.31,-7.73,0,*7D
1530032605.18,29728,17.13,74004.0,2.95,-6.63,-7.99,0,*71
1530032606.39,29729,17.06,74002.5,2.95,-6.39,-7.73,0,*7B
1530032607.65,29730,17.13,74004.5,2.93,-6.27,-7.61,0,*79
1530032608.89,29731,17.13,74006.0,2.93,-6.39,-7.65,0,*73
1530032610.14,29732,17.13,74006.8,2.93,-6.63,-8.03,0,*70
1530032611.35,29733,17.13,74004.3,2.95,-6.55,-8.03,0,*72
1530032612.56,29734,17.13,74004.5,2.93,-6.85,-8.29,0,*76
1530032613.76,29735,17.13,74004.0,2.91,-6.69,-8.03,0,*7F
1530032614.99,29736,17.13,74004.0,2.91,-6.59,-8.07,0,*7B
1530032616.25,29737,17.13,74004.5,2.89,-7.01,-8.51,0,*7C
1530032617.5,29738,17.13,74000.8,2.89,-6.93,-8.37,0,*79
1530032618.71,29739,17.13,74006.8,2.89,-6.89,-8.33,0,*77
1530032619.96,29740,17.13,74004.3,2.89,-6.73,-7.99,0,*73
1530032621.2,29741,17.13,74004.0,2.89,-6.73,-8.11,0,*7D
1530032622.44,29742,17.13,74004.8,2.89,-6.59,-7.95,0,*75
1530032623.68,29743,17.13,74002.3,2.89,-6.73,-7.99,0,*70
1530032624.91,29744,17.13,74004.0,2.87,-6.63,-7.95,0,*74
1530032626.15,29745,17.13,74006.8,2.89,-6.73,-7.99,0,*76
1530032627.37,29746,17.13,74004.8,2.89,-6.81,-8.21,0,*74
1530032628.62,29747,17.13,74006.5,2.89,-6.39,-7.73,0,*7E
1530032629.86,29748,17.13,74004.5,2.89,-6.13,-7.57,0,*7F
1530032631.11,29749,17.13,74004.8,2.89,-6.35,-7.61,0,*7F
1530032632.33,29750,17.13,74004.5,2.91,-5.97,-7.27,0,*77
1530032633.57,29751,17.13,74006.3,2.89,-6.13,-7.39,0,*7F
1530032634.82,29752,17.13,74004.8,2.89,-6.01,-7.31,0,*77
1530032636.03,29753,17.13,74004.5,2.91,-6.31,-7.65,0,*7D
1530032637.27,29754,17.13,74004.8,2.91,-6.27,-7.65,0,*7D
1530032638.49,29755,17.13,74004.3,2.89,-6.47,-7.83,0,*7B
1530032639.7,29756,17.13,74006.3,2.89,-6.89,-8.33,0,*7E
1530032640.92,29757,17.13,74006.3,2.89,-6.81,-8.25,0,*70
1530032642.14,29758,17.13,74004.5,2.91,-7.05,-8.45,0,*7D
1530032643.33,29759,17.13,74004.0,2.91,-6.89,-8.29,0,*73
1530032644.59,29760,17.13,74002.5,2.89,-7.05,-8.51,0,*7A
1530032645.81,29761,17.13,74004.5,2.89,-6.89,-8.25,0,*7D
1530032647.05,29762,17.13,74006.8,2.89,-6.77,-8.11,0,*78
1530032648.31,29763,17.13,74000.5,2.89,-6.63,-7.95,0,*7F
1530032649.53,29764,17.13,74006.3,2.89,-6.59,-7.87,0,*72
1530032650.75,29765,17.13,74004.8,2.91,-6.47,-7.91,0,*72
1530032651.98,29766,17.13,74004.0,2.89,-6.47,-7.69,0,*7F
1530032653.21,29767,17.13,74002.0,2.89,-6.77,-8.21,0,*7E
1530032654.45,29768,17.13,74002.0,2.89,-6.73,-8.07,0,*71
1530032655.64,29769,17.13,74004.5,2.91,-6.69,-8.17,0,*73
1530032656.83,29770,17.13,74006.0,2.91,-6.77,-8.17,0,*74
1530032658.03,29771,17.13,74004.3,2.91,-7.11,-8.45,0,*73
1530032659.25,29772,17.13,74002.0,2.89,-6.77,-8.21,0,*7A
1530032660.49,29773,17.13,74004.3,2.89,-7.05,-8.45,0,*7D
1530032661.73,29774,17.13,74004.3,2.89,-7.69,-9.19,0,*78
1530032662.95,29775,17.13,74004.5,2.87,-7.57,-8.93,0,*79
1530032664.15,29776,17.13,74006.8,2.87,-7.31,-8.67,0,*71
1530032665.39,29777,17.13,74006.3,2.87,-7.57,-9.15,0,*74
1530032666.66,29778,17.13,74002.0,2.85,-7.99,-9.37,0,*7B
1530032667.9,29779,17.13,74006.0,2.85,-7.73,-9.31,0,*78
1530032669.17,29780,17.13,74000.5,2.81,-7.69,-9.11,0,*73
1530032670.44,29781,17.13,74000.5,2.81,-7.69,-9.11,0,*72
1530032671.69,29782,17.13,74000.3,2.81,-7.01,-8.45,0,*7F
1530032672.87,29783,17.13,74002.5,2.83,-7.49,-8.93,0,*7B
1530032674.12,29784,17.13,74004.3,2.83,-7.61,-9.11,0,*7D
1530032675.37,29785,17.13,74006.8,2.81,-7.61,-9.01,0,*7F
1530032676.59,29786,17.13,74004.0,2.81,-7.15,-8.59,0,*73
1530032677.78,29787,17.13,74004.3,2.83,-7.49,-8.85,0,*78
1530032678.99,29788,17.13,74002.0,2.81,-7.15,-8.63,0,*74
1530032680.26,29789,17.13,74000.5,2.81,-7.61,-9.11,0,*72
1530032681.53,29790,17.13,74006.3,2.81,-7.77,-9.15,0,*79
1530032682.76,29791,17.13,74004.3,2.79,-7.61,-9.01,0,*7D
1530032683.94,29792,17.13,74006.5,2.79,-7.15,-8.63,0,*78
1530032685.13,29793,17.13,74004.8,2.79,-7.23,-8.59,0,*75
1530032686.35,29794,17.13,74004.8,2.79,-7.01,-8.41,0,*7B
1530032687.53,29795,17.13,74006.3,2.79,-7.49,-8.75,0,*71
1530032688.73,29796,17.13,74002.8,2.79,-7.11,-8.45,0,*7C
1530032689.93,29797,17.13,74004.8,2.79,-6.85,-8.21,0,*73
1530032691.14,29798,17.13,74006.0,2.79,-6.69,-7.95,0,*7E
1530032692.33,29799,17.13,74004.3,2.79,-6.81,-8.21,0,*79
1530032693.52,29800,17.13,74004.5,2.83,-7.23,-8.55,0,*79
1530032694.76,29801,17.13,74004.5,2.81,-6.97,-8.29,0,*7F
1530032695.98,29802,17.13,74000.3,2.81,-6.89,-8.33,0,*78
1530032697.22,29803,17.13,74006.0,2.81,-6.97,-8.41,0,*73
1530032698.46,29804,17.13,74002.8,2.81,-6.69,-7.95,0,*73
1530032699.69,29805,17.13,74002.8,2.83,-6.63,-8.03,0,*7A
1530032700.91,29806,17.13,74004.5,2.83,-6.77,-8.11,0,*7F
1530032702.15,29807,17.13,74006.3,2.85,-7.05,-8.41,0,*79
1530032703.4,29808,17.13,74000.8,2.85,-7.35,-8.85,0,*7D
1530032704.61,29809,17.13,74000.5,2.83,-7.61,-9.05,0,*72
1530032705.8,29810,17.13,74004.0,2.83,-7.19,-8.55,0,*71
1530032707.01,29811,17.13,74004.0,2.83,-7.31,-8.59,0,*76
1530032708.2,29812,17.13,74004.3,2.83,-7.19,-8.55,0,*73
1530032709.42,29813,17.13,74004.5,2.81,-7.49,-8.89,0,*74
1530032710.6,29814,17.13,74006.0,2.83,-7.49,-8.93,0,*7A
1530032711.79,29815,17.13,74004.8,2.83,-7.19,-8.55,0,*74
1530032713.03,29816,17.13,74004.8,2.81,-7.35,-8.71,0,*7D
1530032714.22,29817,17.13,74000.8,2.83,-7.19,-8.55,0,*76
1530032715.46,29818,17.13,74004.0,2.83,-7.65,-9.11,0,*73
1530032716.68,29819,17.13,74004.3,2.83,-7.43,-8.71,0,*71
1530032717.92,29820,17.13,74002.0,2.85,-7.11,-8.51,0,*78
1530032719.11,29821,17.13,74006.0,2.83,-7.19,-8.55,0,*73
1530032720.35,29822,17.13,74002.5,2.83,-7.05,-8.51,0,*79
1530032721.54,29823,17.13,74006.0,2.83,-7.11,-8.55,0,*79
1530032722.78,29824,17.13,74000.5,2.85,-7.61,-9.05,0,*7B
1530032724.02,29825,17.13,74004.5,2.85,-7.11,-8.51,0,*7D
1530032725.26,29826,17.13,74002.5,2.85,-7.05,-8.41,0,*7A
1530032726.46,29827,17.13,74004.0,2.83,-6.81,-8.17,0,*73
1530032727.69,29828,17.13,74002.5,2.83,-7.05,-8.51,0,*73
1530032728.89,29829,17.13,74006.5,2.83,-6.81,-8.25,0,*7C
1530032730.13,29830,17.13,74006.5,2.85,-7.11,-8.51,0,*79
1530032731.34,29831,17.13,74006.0,2.85,-7.23,-8.59,0,*71
1530032732.59,29832,17.13,74006.5,2.85,-6.97,-8.37,0,*74
1530032733.8,29833,17.13,74006.5,2.87,-7.01,-8.33,0,*7D
1530032735.02,29834,17.13,74006.3,2.87,-7.01,-8.37,0,*7E
1530032736.24,29835,17.13,74004.8,2.87,-6.77,-8.07,0,*7C
1530032737.49,29836,17.13,74004.8,2.89,-6.73,-8.07,0,*75
1530032738.74,29837,17.13,74004.8,2.89,-6.93,-8.37,0,*79
1530032739.99,29838,17.13,74004.0,2.89,-6.77,-8.11,0,*78
1530032741.18,29839,17.13,74004.3,2.91,-7.11,-8.41,0,*74
1530032742.42,29840,17.13,74004.0,2.89,-6.93,-8.33,0,*7D
1530032743.68,29841,17.13,74004.5,2.89,-7.05,-8.51,0,*76
1530032744.89,29842,17.13,74006.3,2.91,-7.27,-8.59,0,*74
1530032746.13,29843,17.13,74008.3,2.89,-7.31,-8.75,0,*75
1530032747.36,29844,17.13,74006.0,2.89,-7.43,-8.67,0,*74
1530032748.55,29845,17.13,74004.0,2.91,-7.53,-8.89,0,*7D
1530032749.74,29846,17.13,74008.0,2.91,-7.49,-8.89,0,*75
1530032750.98,29847,17.13,74010.0,2.89,-7.27,-8.55,0,*74
1530032752.22,29848,17.13,74006.5,2.89,-6.93,-8.33,0,*75
1530032753.4,29849,17.13,74004.8,2.91,-6.89,-8.33,0,*76
1530032754.6,29850,17.13,74006.0,2.91,-7.11,-8.45,0,*7F
1530032755.83,29851,17.13,74006.3,2.89,-7.27,-8.75,0,*71
1530032757.05,29852,17.13,74008.8,2.89,-7.53,-8.89,0,*72
1530032758.3,29853,17.13,74004.8,2.89,-7.73,-9.19,0,*79
1530032759.54,29854,17.13,74006.8,2.89,-7.43,-8.93,0,*7E
1530032760.79,29855,17.13,74002.5,2.89,-7.39,-8.81,0,*71
1530032762.01,29856,17.13,74004.0,2.91,-7.39,-8.89,0,*73
1530032763.26,29857,17.13,74006.8,2.89,-7.31,-8.81,0,*7B
1530032764.51,29858,17.13,74008.5,2.89,-7.43,-9.01,0,*78
1530032765.74,29859,17.13,74004.0,2.89,-7.27,-8.67,0,*7A
1530032766.95,29860,17.13,74004.5,2.89,-7.15,-8.67,0,*71
1530032768.16,29861,17.13,74004.8,2.91,-7.35,-8.75,0,*78
1530032769.38,29862,17.13,74004.8,2.89,-7.53,-9.05,0,*74
1530032770.65,29863,17.13,74010.8,2.89,-7.57,-9.15,0,*70
1530032771.89,29864,17.13,74004.5,2.91,-7.57,-9.15,0,*7E
1530032773.08,29865,17.13,74006.8,2.91,-7.53,-9.19,0,*77
1530032774.3,29866,17.13,74002.8,2.91,-7.73,-9.27,0,*7B
1530032775.54,29867,17.13,74006.5,2.91,-7.95,-9.53,0,*71
1530032776.76,29868,17.13,74004.8,2.91,-7.35,-8.97,0,*7D
1530032777.97,29869,17.13,74006.3,2.89,-7.15,-8.75,0,*7B
1530032779.18,29870,17.13,74008.8,2.91,-7.05,-8.75,0,*7B
1530032780.43,29871,17.13,74006.8,2.89,-7.27,-9.01,0,*71
1530032781.62,29872,17.13,74008.0,2.91,-7.11,-8.89,0,*7F
1530032782.86,29873,17.13,74006.8,2.89,-7.39,-9.19,0,*75
1530032784.07,29874,17.19,74008.3,2.91,-7.39,-9.01,0,*72
1530032785.28,29875,17.13,74006.8,2.91,-7.39,-9.01,0,*73
1530032786.5,29876,17.13,74006.3,2.89,-7.15,-8.93,0,*7D
1530032787.7,29877,17.13,74008.0,2.91,-7.15,-8.89,0,*7E
1530032788.91,29878,17.13,74004.5,2.93,-7.23,-8.93,0,*7D
1530032790.14,29879,17.13,74004.8,2.93,-7.31,-9.05,0,*71
1530032791.34,29880,17.13,74004.5,2.91,-7.15,-8.89,0,*76
1530032792.57,29881,17.13,74006.5,2.93,-6.93,-8.59,0,*77
1530032793.79,29882,17.13,74006.5,2.91,-7.01,-8.85,0,*7D
1530032794.97,29883,17.13,74004.8,2.91,-7.49,-9.27,0,*79
1530032796.19,29884,17.13,74004.3,2.91,-7.65,-9.31,0,*77
1530032797.37,29885,17.13,74006.8,2.91,-7.49,-9.27,0,*7F
1530032798.56,29886,17.13,74006.5,2.91,-7.53,-9.31,0,*70
1530032799.75,29887,17.13,74004.8,2.91,-7.83,-9.67,0,*7F
1530032800.97,29888,17.13,74008.5,2.91,-7.83,-9.53,0,*77
1530032802.18,29889,17.19,74008.5,2.91,-8.03,-9.79,0,*79
1530032803.42,29890,17.13,74010.0,2.89,-7.87,-9.61,0,*72
1530032804.69,29891,17.13,74006.8,2.89,-7.99,-9.83,0,*70
1530032805.93,29892,17.13,74006.5,2.91,-7.95,-9.83,0,*76
1530032807.19,29893,17.19,74008.0,2.89,-8.07,-10.01,0,*48
1530032808.46,29894,17.13,74006.3,2.89,-7.95,-9.83,0,*79
1530032809.69,29895,17.19,74010.5,2.89,-7.43,-9.31,0,*7A
1530032810.89,29896,17.19,74010.8,2.91,-7.11,-8.97,0,*7A
1530032812.08,29897,17.13,74008.5,2.91,-7.23,-9.23,0,*74
1530032813.29,29898,17.13,74006.0,2.91,-7.77,-9.71,0,*7D
1530032814.56,29899,17.19,74008.5,2.89,-7.69,-9.57,0,*7E
1530032815.83,29900,17.19,74010.3,2.89,-7.57,-9.49,0,*7D
1530032817.09,29901,17.13,74006.8,2.89,-7.61,-9.57,0,*76
1530032818.31,29902,17.13,74006.5,2.89,-8.33,-10.09,0,*4E
1530032819.53,29903,17.19,74010.0,2.89,-7.87,-9.89,0,*7F
1530032820.76,29904,17.13,74010.0,2.89,-8.37,-10.15,0,*41
1530032821.99,29905,17.19,74008.5,2.89,-8.33,-10.15,0,*44
1530032823.21,29906,17.13,74008.8,2.89,-8.25,-10.09,0,*4D
1530032824.43,29907,17.13,74006.8,2.87,-7.95,-9.71,0,*71
1530032825.67,29908,17.19,74008.0,2.89,-7.57,-9.31,0,*7A
1530032826.85,29909,17.13,74008.5,2.87,-7.53,-9.31,0,*71
1530032828.09,29910,17.13,74006.5,2.89,-7.83,-9.57,0,*7A
1530032829.36,29911,17.13,74008.3,2.89,-7.73,-9.49,0,*7B
1530032830.56,29912,17.13,74010.3,2.87,-8.67,-10.53,0,*4F
1530032831.79,29913,17.19,74012.5,2.87,-8.89,-10.67,0,*49
1530032832.99,29914,17.13,74006.3,2.87,-8.75,-10.57,0,*4E
1530032834.19,29915,17.19,74010.8,2.87,-8.75,-10.53,0,*4B
1530032835.41,29916,17.19,74010.8,2.85,-9.05,-10.85,0,*47
1530032836.66,29917,17.13,74004.5,2.85,-8.93,-10.71,0,*43
1530032837.93,29918,17.19,74008.5,2.81,-8.85,-10.63,0,*4C
1530032839.13,29919,17.19,74010.5,2.83,-8.71,-10.49,0,*4C
1530032840.34,29920,17.13,74008.0,2.83,-8.59,-10.35,0,*47
1530032841.56,29921,17.19,74008.0,2.83,-9.37,-11.15,0,*4C
1530032842.8,29922,17.19,74008.5,2.79,-9.53,-11.37,0,*48
1530032844.01,29923,17.19,74012.3,2.75,-9.27,-10.97,0,*4D
1530032845.24,29924,17.19,74008.8,2.75,-9.05,-10.79,0,*4A
1530032846.44,29925,17.19,74008.5,2.75,-9.19,-10.93,0,*42
1530032847.64,29926,17.19,74010.8,2.75,-9.23,-11.11,0,*43
1530032848.87,29927,17.13,74006.5,2.73,-9.23,-10.89,0,*44
1530032850.07,29928,17.19,74008.3,2.71,-9.23,-11.01,0,*48
1530032851.27,29929,17.19,74008.8,2.71,-9.31,-11.01,0,*4A
1530032852.47,29930,17.19,74008.0,2.71,-9.31,-11.01,0,*42
1530032853.67,29931,17.19,74010.8,2.71,-9.23,-10.89,0,*41
1530032854.91,29932,17.19,74010.5,2.69,-9.53,-11.19,0,*44
1530032856.16,29933,17.19,74006.8,2.69,-9.49,-11.15,0,*42
1530032857.41,29934,17.19,74010.8,2.67,-9.37,-11.01,0,*47
1530032858.66,29935,17.19,74008.5,2.67,-9.37,-10.89,0,*47
1530032859.85,29936,17.19,74008.3,2.65,-9.31,-10.93,0,*4B
1530032861.08,29937,17.19,74014.3,2.65,-9.27,-10.79,0,*49
1530032862.32,29938,17.19,74008.3,2.63,-9.05,-10.71,0,*48
1530032863.54,29939,17.19,74008.5,2.63,-9.31,-10.85,0,*45
1530032864.78,29940,17.13,74006.0,2.63,-9.49,-11.11,0,*48
1530032865.99,29941,17.19,74010.3,2.63,-9.31,-10.85,0,*4A
1530032867.24,29942,17.19,74010.8,2.63,-8.93,-10.41,0,*48
1530032868.44,29943,17.19,74010.8,2.61,-8.67,-10.15,0,*41
1530032869.64,29944,17.19,74010.0,2.61,-8.67,-10.15,0,*46
1530032870.83,29945,17.19,74010.3,2.61,-8.67,-10.05,0,*46
1530032872.05,29946,17.19,74010.0,2.61,-9.31,-10.75,0,*40
1530032873.27,29947,17.19,74008.0,2.61,-9.57,-10.97,0,*4D
1530032874.51,29948,17.19,74010.0,2.61,-9.45,-10.75,0,*4D
1530032875.74,29949,17.19,74008.0,2.59,-9.23,-10.45,0,*44
1530032876.98,29950,17.19,74014.5,2.59,-9.53,-10.93,0,*40
1530032878.22,29951,17.19,74010.5,2.59,-9.49,-10.89,0,*41
1530032879.44,29952,17.19,74008.0,2.53,-9.53,-10.93,0,*48
1530032880.68,29953,17.19,74010.3,2.53,-9.53,-10.79,0,*4D
1530032881.93,29954,17.19,74008.5,2.53,-9.53,-10.79,0,*4A
1530032883.13,29955,17.19,74008.0,2.53,-9.67,-10.97,0,*4C
1530032884.35,29956,17.19,74010.5,2.51,-10.05,-11.41,0,*7B
1530032885.56,29957,17.19,74010.3,2.49,-9.93,-11.37,0,*45
1530032886.76,29958,17.19,74008.8,2.49,-9.79,-11.11,0,*4A
1530032887.97,29959,17.19,74008.5,2.49,-9.61,-10.89,0,*42
1530032889.2,29960,17.19,74008.8,2.49,-9.37,-10.53,0,*4C
1530032890.44,29961,17.19,74010.8,2.45,-9.15,-10.35,0,*41
1530032891.67,29962,17.19,74008.3,2.45,-9.11,-10.19,0,*48
1530032892.9,29963,17.19,74010.5,2.47,-8.97,-10.19,0,*44
1530032894.13,29964,17.19,74008.0,2.47,-9.27,-10.35,0,*47
1530032895.33,29965,17.19,74008.8,2.45,-9.23,-10.35,0,*40
1530032896.55,29966,17.19,74012.5,2.47,-8.93,-9.97,0,*7B
1530032897.79,29967,17.19,74006.8,2.47,-8.81,-9.79,0,*79
1530032898.98,29968,17.19,74010.3,2.45,-8.67,-9.79,0,*7C
1530032900.18,29969,17.19,74012.0,2.45,-8.71,-9.75,0,*76
1530032901.42,29970,17.19,74010.5,2.47,-8.55,-9.61,0,*7F
1530032902.66,29971,17.19,74010.3,2.47,-8.33,-9.53,0,*7F
1530032903.88,29972,17.19,74008.5,2.45,-8.07,-9.27,0,*7A
1530032905.09,29973,17.19,74008.0,2.45,-8.33,-9.61,0,*7E
1530032906.31,29974,17.19,74010.0,2.47,-8.45,-9.67,0,*7C
1530032907.54,29975,17.19,74008.5,2.47,-8.33,-9.53,0,*7B
1530032908.8,29976,17.19,74008.5,2.47,-7.91,-9.11,0,*79
1530032910.07,29977,17.19,74010.5,2.47,-8.03,-9.37,0,*78
1530032911.28,29978,17.19,74008.8,2.47,-8.41,-9.75,0,*77
1530032912.49,29979,17.19,74010.8,2.47,-8.33,-9.67,0,*70
1530032913.73,29980,17.19,74008.5,2.47,-8.29,-9.53,0,*7A